Погода в Карамахи

Россия / Республика Дагестан     42°37′06″N   47°15′29″E
темп.,
°C
ветер,
м/с
пор.,
м/с
влажн.,
%
обл.,
%
осадки,
мм/ч
давл.,
гПа
погр.,
м
26 июня, вс
вс2600:00+14ююз2294100 0.1 101028
03:00+12ююз2295100 2.4 101153
06:00+14ююз2281100 0.3 100970
09:00+19всв2263100 0.3 1007495
12:00+21всв336899 0.3 1006991
15:00+19ссв3284100 3.3 1007578
18:00+17с228770 1.8 1008295
21:00+14зюз1190100 2.8 100914
27 июня, пн
пн2700:00+14з2290100 0.9 100927
03:00+13юз32930 0.9 100928
06:00+15юз22840 0.0 101093
09:00+20сз21590 0.0 1009533
12:00+23ссв425710 0.0 10081308
15:00+21с556595 0.3 10101073
18:00+19с247796 0.5 1011600
21:00+16зюз3287100 0.5 101229
28 июня, вт
вт2800:00+15з2289100 0.0 101135
03:00+14зсз3589100 0.1 1011107
06:00+15зсз26810 0.0 1011286
09:00+20сз46600 0.0 1010828
12:00+21с55613 0.0 10101094
15:00+20с666222 0.1 10111076
18:00+17с367138 0.3 1013720
21:00+13сз11770 0.3 101513
29 июня, ср
ср2900:00+12юз1175100 0.0 101513
03:00+12ююз11755 0.0 101512
06:00+15юз11690 0.0 101564
09:00+19св22460 0.0 10141097
12:00+21всв434610 0.0 10141531
15:00+21св324975 0.1 10141593
18:00+18всв226832 0.0 1014391
21:00+14вюв11892 0.1 101616
30 июня, чт
чт3000:00+12ю228814 0.0 101611
03:00+12юв228898 0.0 101514
06:00+14в128576 0.1 1015141
09:00+17всв227761 0.2 1014726
12:00+16всв3383100 0.1 1014564
15:00+16всв3280100 0.8 1014679
18:00+15всв118158 0.7 1015326
21:00+12сз019024 1.1 101610